Stuart, FL

11:22 PM EDT on October 20, 2017 (GMT -0400)
Witham

Weather History for KSUA - April, 2013

Change the Weather History Date:

Saturday, April 27, 2013

  Actual Average Record
Temperature  
Mean Temperature 76 °F -  
Max Temperature 80 °F 83 °F 94 °F (1967)
Min Temperature 73 °F 65 °F 51 °F (1987)
Cooling Degree Days 12    
Growing Degree Days 26 (Base 50)    
Moisture  
Dew Point 62 °F    
Average Humidity 62    
Maximum Humidity 73    
Minimum Humidity 45    
Precipitation  
Precipitation 0.00 in - - ()
Sea Level Pressure  
Sea Level Pressure 30.18 in    
Wind  
Wind Speed 11 mph (East)    
Max Wind Speed 20 mph    
Max Gust Speed 21 mph    
Visibility 9 miles    
Events      
Averages and records for this station are not official NWS values.
T = Trace of Precipitation, MM = Missing Value Source: NWS Daily Summary

Daily Weather History Graph

Daily Weather History Graph

Search for Another Location

Airport or City:

Trip Planner

Search our weather history database for the weather conditions in past years. The results will help you decide how hot, cold, wet, or windy it might be!

Date:

Astronomy

Apr. 27, 2013 Rise Set
Actual Time 6:45 AM EDT 7:52 PM EDT
Civil Twilight 6:20 AM EDT 8:16 PM EDT
Nautical Twilight 5:52 AM EDT 8:45 PM EDT
Astronomical Twilight 5:22 AM EDT 9:15 PM EDT
Moon 10:10 PM EDT (4/27) 8:10 AM EDT (4/27)
Length of Visible Light 13h 55m
Length of Day
13h 06m
Waning Gibbous, 95% of the Moon is Illuminated
Apr 27
Waning Gibbous
May 2
Last Quarter
May 9
New
May 18
First Quarter
May 25
Full

Hourly Weather History & Observations

Time (EDT) Temp. Heat Index Dew Point Humidity Pressure Visibility Wind Dir Wind Speed Gust Speed Precip Events Conditions
12:15 AM 75.2 °F - 64.4 °F 69% 30.24 in 10.0 mi East 10.4 mph - N/A   Scattered Clouds
12:35 AM 75.2 °F - 64.4 °F 69% 30.24 in 10.0 mi East 8.1 mph - N/A   Mostly Cloudy
12:55 AM 75.2 °F - 64.4 °F 69% 30.23 in 10.0 mi East 8.1 mph - N/A   Scattered Clouds
1:15 AM 75.2 °F - 64.4 °F 69% 30.23 in 10.0 mi East 9.2 mph - N/A   Scattered Clouds
1:35 AM 75.2 °F - 64.4 °F 69% 30.22 in 10.0 mi East 8.1 mph 16.1 mph N/A   Scattered Clouds
1:55 AM 73.4 °F - 64.4 °F 73% 30.21 in 10.0 mi East 12.7 mph 17.3 mph N/A   Scattered Clouds
2:15 AM 73.4 °F - 62.6 °F 69% 30.20 in 10.0 mi East 11.5 mph - N/A   Scattered Clouds
2:35 AM 73.4 °F - 62.6 °F 69% 30.19 in 10.0 mi East 11.5 mph - N/A   Scattered Clouds
2:55 AM 73.4 °F - 62.6 °F 69% 30.19 in 10.0 mi East 11.5 mph - N/A   Mostly Cloudy
3:15 AM 73.4 °F - 62.6 °F 69% 30.18 in 10.0 mi East 8.1 mph 16.1 mph N/A   Mostly Cloudy
3:35 AM 73.4 °F - 60.8 °F 65% 30.18 in 10.0 mi East 9.2 mph - N/A   Mostly Cloudy
4:15 AM 73.4 °F - 62.6 °F 69% 30.17 in 10.0 mi East 9.2 mph - N/A   Scattered Clouds
4:35 AM 73.4 °F - 60.8 °F 65% 30.17 in 10.0 mi East 8.1 mph - N/A   Scattered Clouds
4:55 AM 73.4 °F - 62.6 °F 69% 30.17 in 10.0 mi East 9.2 mph - N/A   Scattered Clouds
5:15 AM 73.4 °F - 62.6 °F 69% 30.16 in 10.0 mi ESE 9.2 mph - N/A   Scattered Clouds
5:35 AM 73.4 °F - 62.6 °F 69% 30.16 in 10.0 mi East 10.4 mph - N/A   Scattered Clouds
5:55 AM 73.4 °F - 62.6 °F 69% 30.17 in 10.0 mi East 8.1 mph - N/A   Mostly Cloudy
6:15 AM 73.4 °F - 60.8 °F 65% 30.17 in 10.0 mi East 8.1 mph - N/A   Scattered Clouds
6:47 AM 73.4 °F - 62.6 °F 69% 30.18 in 7.0 mi East 9.2 mph - N/A   Scattered Clouds
7:47 AM 75.2 °F - 62.6 °F 65% 30.19 in 7.0 mi East 9.2 mph - N/A   Scattered Clouds
8:47 AM 77.0 °F - 62.6 °F 61% 30.20 in 7.0 mi East 11.5 mph 16.1 mph N/A   Mostly Cloudy
9:47 AM 78.8 °F - 62.6 °F 57% 30.20 in 7.0 mi East 12.7 mph 18.4 mph N/A   Mostly Cloudy
10:47 AM 80.6 °F 81.8 °F 62.6 °F 54% 30.21 in 7.0 mi East 16.1 mph 20.7 mph N/A   Mostly Cloudy
11:47 AM 80.6 °F 81.8 °F 62.6 °F 54% 30.21 in 7.0 mi East 12.7 mph - N/A   Mostly Cloudy
12:47 PM 80.6 °F 81.8 °F 62.6 °F 54% 30.21 in 7.0 mi East 19.6 mph - N/A   Mostly Cloudy
1:47 PM 80.6 °F 81.8 °F 62.6 °F 54% 30.19 in 7.0 mi East 15.0 mph - N/A   Mostly Cloudy
2:47 PM 80.6 °F 81.8 °F 62.6 °F 54% 30.18 in 10.0 mi East 18.4 mph - N/A   Mostly Cloudy
3:47 PM 80.6 °F 81.5 °F 60.8 °F 51% 30.16 in 10.0 mi East 15.0 mph - N/A   Mostly Cloudy
4:47 PM 80.6 °F 80.8 °F 57.2 °F 45% 30.14 in 10.0 mi East 11.5 mph - N/A   Partly Cloudy
8:15 PM 75.2 °F - 59.0 °F 57% 30.14 in 10.0 mi East 11.5 mph 17.3 mph N/A   Scattered Clouds
8:35 PM 75.2 °F - 59.0 °F 57% 30.14 in 10.0 mi ENE 12.7 mph - N/A   Scattered Clouds
8:55 PM 75.2 °F - 59.0 °F 57% 30.15 in 10.0 mi East 13.8 mph - N/A   Mostly Cloudy
9:15 PM 75.2 °F - 59.0 °F 57% 30.15 in 10.0 mi East 10.4 mph - N/A   Scattered Clouds
9:35 PM 75.2 °F - 60.8 °F 61% 30.16 in 10.0 mi East 11.5 mph 17.3 mph N/A   Scattered Clouds
9:55 PM 75.2 °F - 59.0 °F 57% 30.16 in 10.0 mi East 12.7 mph - N/A   Scattered Clouds
10:15 PM 75.2 °F - 59.0 °F 57% 30.16 in 10.0 mi East 11.5 mph - N/A   Scattered Clouds
10:35 PM 75.2 °F - 59.0 °F 57% 30.16 in 10.0 mi East 12.7 mph - N/A   Scattered Clouds
10:55 PM 73.4 °F - 59.0 °F 61% 30.16 in 10.0 mi East 10.4 mph - N/A   Scattered Clouds
11:15 PM 73.4 °F - 59.0 °F 61% 30.16 in 10.0 mi East 12.7 mph - N/A   Scattered Clouds
11:35 PM 73.4 °F - 59.0 °F 61% 30.16 in 10.0 mi East 9.2 mph - N/A   Clear
11:55 PM 73.4 °F - 59.0 °F 61% 30.15 in 10.0 mi ESE 10.4 mph - N/A   Scattered Clouds